Location: Unspecified
(0.0000°N, 0.0000°E)
Time: 22:55:59
(UTC+00:00)

ISS - Pass Details

Date: 17 July 2019
Orbit: 409 x 418 km, 51.6° (Epoch: 23 July)

Event Time Altitude Azimuth Distance (km) Brightness Sun altitude
Rises 18:26:56 0° 224° (SW) 2,355 0.4 -4.8°
Reaches altitude 10° 18:29:04 10° 229° (SW) 1,490 -0.6 -5.3°
Maximum altitude 18:32:19 49° 305° (NW) 543 -2.6 -6.1°
Drops below altitude 10° 18:35:33 10° 22° (NNE) 1,480 -1.0 -6.8°
Sets 18:37:40 0° 27° (NNE) 2,338 0.0 -7.3°
